Le nostre stazioni meteo in Italia

Pubblicità
Il mio iltempo24.it
Bologna, Italia (16132): Temperatura & dewpoint: 22.05.2018 09:00:00 - 28.05.2018 09:00:00 (CEST)Bologna, Italia (16132): reduced air pressure: 22.05.2018 09:00:00 - 28.05.2018 09:00:00 (CEST)Bologna, Italia (16132): precipitazioni: 22.05.2018 09:00:00 - 28.05.2018 09:00:00 (CEST)
Data & Tempo tt [°C] td [°C] ppp [hPa] rr [mm]
28.05.2018 09:00:00 21,3 18,0 1019,2 -
28.05.2018 08:00:00 20,3 17,1 1018,8 0,0
28.05.2018 07:00:00 19,5 16,7 1018,2 -
28.05.2018 06:00:00 19,4 16,6 1017,3 -
28.05.2018 05:00:00 20,0 17,0 1017,1 -
28.05.2018 04:00:00 20,6 17,3 1017,3 -
28.05.2018 03:00:00 21,1 17,8 1017,4 -
28.05.2018 02:00:00 21,4 17,7 1018,1 0,0
28.05.2018 01:00:00 22,4 17,5 1018,3 -
28.05.2018 00:00:00 23,2 17,8 1017,6 -
27.05.2018 23:00:00 23,4 17,1 1017,0 -
27.05.2018 22:00:00 24,4 17,1 1017,1 -
27.05.2018 21:00:00 25,0 17,1 1016,5 -
27.05.2018 20:00:00 26,4 17,1 1016,4 0,0
27.05.2018 19:00:00 27,3 17,7 1015,5 -
27.05.2018 18:00:00 27,9 17,7 1016,1 -
27.05.2018 17:00:00 28,5 18,2 1016,2 -
27.05.2018 16:00:00 28,4 17,5 1016,4 -
27.05.2018 15:00:00 29,0 17,2 1017,0 -
27.05.2018 14:00:00 28,7 18,4 1017,6 0,0
27.05.2018 13:00:00 27,5 17,3 1018,5 -
27.05.2018 12:00:00 26,5 18,0 1019,2 -
27.05.2018 11:00:00 24,6 18,5 1019,3 -
27.05.2018 10:00:00 22,9 18,6 1019,5 -
27.05.2018 09:00:00 21,9 18,0 1019,7 -
27.05.2018 08:00:00 19,6 16,4 1019,2 0,0
27.05.2018 07:00:00 19,7 16,5 1019,1 -
27.05.2018 06:00:00 19,2 16,0 1019,1 -
27.05.2018 05:00:00 19,3 15,9 1018,8 -
27.05.2018 04:00:00 20,6 16,4 1018,5 -
27.05.2018 03:00:00 21,0 17,1 1018,7 -
27.05.2018 02:00:00 21,1 17,0 1019,2 0,0
27.05.2018 01:00:00 21,7 17,2 1019,7 -
27.05.2018 00:00:00 22,7 18,0 1019,8 -
26.05.2018 23:00:00 24,3 16,7 1019,5 -
26.05.2018 22:00:00 24,9 16,8 1019,1 -
26.05.2018 21:00:00 25,7 17,5 1018,8 -
26.05.2018 20:00:00 27,7 18,6 1018,2 0,0
26.05.2018 19:00:00 28,5 17,9 1017,5 -
26.05.2018 18:00:00 28,7 17,5 1017,3 -
26.05.2018 17:00:00 28,9 17,7 1017,9 -
26.05.2018 16:00:00 28,9 17,4 1018,4 -
26.05.2018 15:00:00 29,1 18,8 1019,0 -
26.05.2018 14:00:00 28,4 18,4 1019,2 0,0
26.05.2018 13:00:00 27,4 18,1 1019,5 -
26.05.2018 12:00:00 27,1 18,3 1019,7 -
26.05.2018 11:00:00 25,4 19,2 1019,7 -
26.05.2018 10:00:00 23,7 19,4 1019,6 -
26.05.2018 09:00:00 21,6 17,5 1019,7 -
26.05.2018 08:00:00 19,7 16,5 1019,3 0,0
26.05.2018 07:00:00 18,7 15,5 1019,3 -
26.05.2018 06:00:00 18,3 15,1 1018,6 -
26.05.2018 05:00:00 18,5 15,1 1018,4 -
26.05.2018 04:00:00 19,7 15,7 1017,9 -
26.05.2018 03:00:00 19,8 15,8 1017,8 -
26.05.2018 02:00:00 19,9 15,7 1017,4 0,0
26.05.2018 01:00:00 21,6 16,5 1017,4 -
26.05.2018 00:00:00 22,0 16,9 1017,0 -
25.05.2018 23:00:00 22,5 16,9 1016,7 -
25.05.2018 22:00:00 23,7 15,9 1016,0 -
25.05.2018 21:00:00 25,4 16,2 1015,3 -
25.05.2018 20:00:00 27,3 17,1 1014,5 0,0
25.05.2018 19:00:00 27,9 18,0 1014,2 -
25.05.2018 18:00:00 28,4 18,1 1014,2 -
25.05.2018 17:00:00 28,3 18,3 1014,3 -
25.05.2018 16:00:00 28,4 18,4 1014,7 -
25.05.2018 15:00:00 27,1 17,8 1015,3 -
25.05.2018 14:00:00 26,7 17,1 1015,7 0,0
25.05.2018 13:00:00 26,1 17,4 1015,8 -
25.05.2018 12:00:00 25,2 17,3 1015,9 -
25.05.2018 11:00:00 23,8 16,7 1016,1 -
25.05.2018 10:00:00 22,6 16,1 1016,3 -
25.05.2018 09:00:00 21,1 17,2 1016,6 -
25.05.2018 08:00:00 19,0 15,4 1016,4 0,0
25.05.2018 07:00:00 17,6 14,4 1016,3 -
25.05.2018 06:00:00 17,3 14,1 1016,1 -
25.05.2018 05:00:00 17,5 14,3 1015,9 -
25.05.2018 04:00:00 18,0 14,8 1016,1 -
25.05.2018 03:00:00 19,2 15,2 1016,1 -
25.05.2018 02:00:00 19,9 16,1 1016,3 0,0
25.05.2018 01:00:00 20,7 16,2 1016,3 -
25.05.2018 00:00:00 20,9 16,4 1016,2 -
24.05.2018 23:00:00 21,6 16,9 1016,1 -
24.05.2018 22:00:00 22,1 15,1 1015,7 -
24.05.2018 21:00:00 23,7 15,4 1015,0 -
24.05.2018 20:00:00 25,2 16,0 1014,9 0,0
24.05.2018 19:00:00 26,3 16,2 1014,6 -
24.05.2018 18:00:00 26,6 16,2 1014,7 -
24.05.2018 17:00:00 27,0 16,8 1014,9 -
24.05.2018 16:00:00 26,3 16,8 1015,6 -
24.05.2018 15:00:00 26,4 17,1 1015,9 -
24.05.2018 14:00:00 26,0 17,0 1016,5 0,0
24.05.2018 13:00:00 24,9 16,5 1017,1 -
24.05.2018 12:00:00 23,8 15,7 1017,5 -
24.05.2018 11:00:00 22,6 15,6 1017,5 -
24.05.2018 10:00:00 21,5 15,9 1017,5 -
24.05.2018 09:00:00 19,7 14,4 1017,5 -
24.05.2018 08:00:00 17,3 13,5 1017,4 0,0
24.05.2018 07:00:00 15,8 12,7 1017,4 -
24.05.2018 06:00:00 15,5 12,4 1017,4 -
24.05.2018 05:00:00 15,5 12,4 1017,4 -
24.05.2018 04:00:00 16,2 13,0 1017,2 -
24.05.2018 03:00:00 16,2 13,0 1017,2 -
24.05.2018 02:00:00 17,3 14,1 1017,4 0,0
24.05.2018 01:00:00 17,4 14,2 1017,3 -
24.05.2018 00:00:00 17,2 14,2 1017,1 -
23.05.2018 23:00:00 17,7 14,7 1017,2 -
23.05.2018 22:00:00 19,1 15,3 1017,1 -
23.05.2018 21:00:00 20,5 15,4 1016,5 -
23.05.2018 20:00:00 21,8 15,3 1015,8 0,0
23.05.2018 19:00:00 22,6 15,6 1015,7 -
23.05.2018 18:00:00 22,9 16,6 1016,0 -
23.05.2018 17:00:00 21,8 16,9 1016,0 -
23.05.2018 16:00:00 20,8 17,5 1016,5 -
23.05.2018 15:00:00 18,8 16,0 1016,8 -
23.05.2018 14:00:00 19,7 15,3 1017,2 0,0
23.05.2018 13:00:00 21,8 14,8 1016,7 -
23.05.2018 12:00:00 21,9 16,3 1016,7 -
23.05.2018 11:00:00 21,0 16,5 1016,7 -
23.05.2018 10:00:00 19,2 15,8 1016,9 -
23.05.2018 09:00:00 18,4 15,2 1016,5 -
23.05.2018 08:00:00 17,6 14,6 1016,4 0,0
23.05.2018 07:00:00 16,7 14,1 1016,0 -
23.05.2018 06:00:00 16,2 13,8 1015,8 -
23.05.2018 05:00:00 16,0 13,4 1015,7 -
23.05.2018 04:00:00 15,8 13,4 1015,6 -
23.05.2018 03:00:00 15,8 13,4 1015,7 -
23.05.2018 02:00:00 16,4 13,8 1015,8 0,0
23.05.2018 01:00:00 16,8 14,0 1015,5 -
23.05.2018 00:00:00 17,5 14,5 1015,5 -
22.05.2018 23:00:00 17,7 14,7 1015,4 -
22.05.2018 22:00:00 17,9 14,9 1015,0 -
22.05.2018 21:00:00 18,6 15,6 1014,5 -
22.05.2018 20:00:00 19,1 15,9 1014,0 -
22.05.2018 19:00:00 20,4 16,0 1014,0 -
22.05.2018 18:00:00 20,2 16,2 1013,8 -
22.05.2018 17:00:00 20,5 16,5 1014,0 -
22.05.2018 16:00:00 20,1 16,3 1013,9 -
22.05.2018 15:00:00 19,9 15,7 1014,2 -
22.05.2018 14:00:00 20,4 15,3 1014,0 -
22.05.2018 13:00:00 19,9 16,1 1014,0 -
22.05.2018 12:00:00 18,3 15,1 1014,0 -
22.05.2018 11:00:00 16,9 14,1 1014,1 -
22.05.2018 10:00:00 16,2 13,8 1014,1 -
22.05.2018 09:00:00 16,0 13,6 1013,7 -

tt = Temperatura
td = dewpoint
ppp = reduced air pressure
rr = precipitazioni

Stazioni seguenti

WeatherPro
AMSI
MeteoEarth